| time (UTC) | temp F | wind direction | speed MPH | gust MPH | rain 1hr in | rain 24hr in | rain mn in | humidity % | barometer mb |
| 20260510003549 | 44 | 0 | 0.0 | 0.0 | 0.00 | 0.38 | 0.38 | 94 | 1012.1 |
| 20260510003054 | 44 | 0 | 0.0 | 0.0 | 0.01 | 0.38 | 0.38 | 94 | 1012.1 |
| 20260510002550 | 44 | 0 | 0.0 | 0.0 | 0.01 | 0.38 | 0.38 | 94 | 1011.7 |
| 20260510002048 | 44 | 0 | 0.0 | 2.0 | 0.01 | 0.38 | 0.38 | 94 | 1011.7 |
| 20260510001554 | 44 | 0 | 0.0 | 2.0 | 0.01 | 0.38 | 0.38 | 94 | 1011.7 |
| 20260510001049 | 44 | 0 | 0.0 | 0.0 | 0.01 | 0.38 | 0.38 | 94 | 1011.5 |
| 20260510000549 | 44 | 0 | 0.0 | 4.0 | 0.01 | 0.38 | 0.38 | 94 | 1011.5 |
| 20260510000052 | 44 | 0 | 0.0 | 4.0 | 0.01 | 0.38 | 0.38 | 94 | 1011.4 |
| 20260509235551 | 44 | 0 | 0.0 | 4.0 | 0.01 | 0.38 | 0.38 | 94 | 1011.4 |
| 20260509235051 | 44 | 0 | 0.0 | 2.0 | 0.01 | 0.38 | 0.38 | 94 | 1011.5 |
| 20260509234552 | 44 | 0 | 0.0 | 7.0 | 0.01 | 0.38 | 0.38 | 94 | 1011.5 |
| 20260509234050 | 44 | 0 | 0.0 | 7.0 | 0.02 | 0.38 | 0.38 | 94 | 1011.5 |
| 20260509233553 | 44 | 0 | 0.0 | 7.0 | 0.02 | 0.38 | 0.38 | 94 | 1011.4 |
| 20260509233055 | 44 | 0 | 0.0 | 1.0 | 0.01 | 0.37 | 0.37 | 94 | 1011.4 |
| 20260509232551 | 44 | 0 | 0.0 | 5.0 | 0.01 | 0.37 | 0.37 | 94 | 1011.5 |
| 20260509232049 | 44 | 0 | 0.0 | 6.0 | 0.01 | 0.37 | 0.37 | 94 | 1011.6 |
| 20260509231600 | 44 | 0 | 0.0 | 6.0 | 0.02 | 0.37 | 0.37 | 94 | 1011.5 |
| 20260509231049 | 44 | 0 | 0.0 | 4.0 | 0.02 | 0.37 | 0.37 | 94 | 1011.5 |
| 20260509230549 | 44 | 0 | 0.0 | 4.0 | 0.03 | 0.37 | 0.37 | 94 | 1011.5 |
| 20260509230052 | 44 | 0 | 0.0 | 7.0 | 0.03 | 0.37 | 0.37 | 94 | 1011.7 |
| 20260509225550 | 45 | 0 | 0.0 | 7.0 | 0.04 | 0.37 | 0.37 | 94 | 1011.6 |
| 20260509225050 | 45 | 0 | 0.0 | 7.0 | 0.04 | 0.37 | 0.37 | 93 | 1011.5 |
| 20260509224551 | 45 | 104 | 0.0 | 10.0 | 0.04 | 0.37 | 0.37 | 93 | 1011.6 |
| 20260509224051 | 45 | 138 | 0.0 | 10.0 | 0.03 | 0.36 | 0.36 | 93 | 1011.7 |
| 20260509223552 | 45 | 0 | 0.0 | 10.0 | 0.03 | 0.36 | 0.36 | 93 | 1011.5 |
| 20260509223056 | 45 | 0 | 0.0 | 2.0 | 0.03 | 0.36 | 0.36 | 93 | 1011.6 |
| 20260509222551 | 45 | 0 | 0.0 | 2.0 | 0.03 | 0.36 | 0.36 | 93 | 1011.6 |
| 20260509222049 | 45 | 0 | 0.0 | 0.0 | 0.04 | 0.36 | 0.36 | 93 | 1011.7 |
| 20260509221554 | 45 | 0 | 0.0 | 3.0 | 0.03 | 0.35 | 0.35 | 93 | 1011.9 |
| 20260509221051 | 45 | 0 | 0.0 | 5.0 | 0.03 | 0.35 | 0.35 | 93 | 1011.8 |
| 20260509220551 | 45 | 0 | 0.0 | 5.0 | 0.02 | 0.34 | 0.34 | 93 | 1011.8 |
| 20260509220057 | 45 | 0 | 0.0 | 5.0 | 0.02 | 0.34 | 0.34 | 93 | 1011.7 |
| 20260509215548 | 45 | 0 | 0.0 | 6.0 | 0.02 | 0.33 | 0.33 | 93 | 1011.7 |
| 20260509215051 | 45 | 0 | 0.0 | 9.0 | 0.02 | 0.33 | 0.33 | 93 | 1011.8 |
| 20260509214554 | 45 | 0 | 0.0 | 9.0 | 0.03 | 0.33 | 0.33 | 93 | 1011.8 |
| 20260509214050 | 45 | 0 | 0.0 | 5.0 | 0.03 | 0.33 | 0.33 | 93 | 1011.9 |
| 20260509213551 | 45 | 90 | 0.0 | 5.0 | 0.03 | 0.33 | 0.33 | 93 | 1011.7 |
| 20260509213053 | 45 | 0 | 0.0 | 5.0 | 0.04 | 0.33 | 0.33 | 93 | 1011.8 |
| 20260509212555 | 45 | 0 | 0.0 | 5.0 | 0.04 | 0.33 | 0.33 | 93 | 1011.8 |
| 20260509212051 | 45 | 0 | 0.0 | 4.0 | 0.03 | 0.32 | 0.32 | 93 | 1011.8 |
| 20260509211552 | 45 | 0 | 0.0 | 4.0 | 0.03 | 0.32 | 0.32 | 93 | 1011.8 |
| 20260509211051 | 45 | 0 | 0.0 | 3.0 | 0.03 | 0.32 | 0.32 | 93 | 1012.1 |
| 20260509210551 | 45 | 162 | 0.0 | 6.0 | 0.04 | 0.32 | 0.32 | 93 | 1012.1 |
| 20260509210105 | 45 | 0 | 0.0 | 6.0 | 0.04 | 0.32 | 0.32 | 93 | 1011.9 |
| 20260509205547 | 45 | 0 | 0.0 | 6.0 | 0.03 | 0.31 | 0.31 | 93 | 1011.8 |
| 20260509205050 | 45 | 0 | 0.0 | 2.0 | 0.04 | 0.31 | 0.31 | 93 | 1012.0 |
| 20260509204557 | 45 | 0 | 0.0 | 2.0 | 0.04 | 0.30 | 0.30 | 93 | 1011.9 |
| 20260509204052 | 45 | 0 | 0.0 | 0.0 | 0.05 | 0.30 | 0.30 | 93 | 1012.0 |
| 20260509203552 | 45 | 0 | 0.0 | 0.0 | 0.06 | 0.30 | 0.30 | 93 | 1012.1 |
| 20260509203052 | 45 | 0 | 0.0 | 1.0 | 0.06 | 0.29 | 0.29 | 93 | 1012.1 |
| 20260509202553 | 45 | 0 | 0.0 | 1.0 | 0.07 | 0.29 | 0.29 | 93 | 1011.9 |
| 20260509202054 | 45 | 0 | 0.0 | 6.0 | 0.08 | 0.29 | 0.29 | 93 | 1011.9 |
| 20260509201554 | 45 | 0 | 0.0 | 6.0 | 0.09 | 0.29 | 0.29 | 93 | 1011.9 |
| 20260509201050 | 45 | 0 | 0.0 | 6.0 | 0.10 | 0.29 | 0.29 | 93 | 1012.0 |
| 20260509200553 | 45 | 0 | 0.0 | 2.0 | 0.10 | 0.28 | 0.28 | 93 | 1012.2 |
| 20260509200105 | 45 | 0 | 0.0 | 2.0 | 0.10 | 0.28 | 0.28 | 93 | 1012.1 |
| 20260509195550 | 45 | 0 | 0.0 | 0.0 | 0.11 | 0.28 | 0.28 | 93 | 1012.2 |
| 20260509195051 | 45 | 0 | 0.0 | 0.0 | 0.11 | 0.27 | 0.27 | 93 | 1012.1 |
| 20260509194553 | 45 | 0 | 0.0 | 2.0 | 0.10 | 0.26 | 0.26 | 92 | 1012.3 |
| 20260509194051 | 45 | 0 | 0.0 | 2.0 | 0.10 | 0.25 | 0.25 | 92 | 1012.3 |
| 20260509193550 | 45 | 0 | 0.0 | 2.0 | 0.10 | 0.24 | 0.24 | 92 | 1012.4 |
| 20260509193056 | 45 | 0 | 0.0 | 7.0 | 0.10 | 0.23 | 0.23 | 92 | 1012.7 |
| 20260509192550 | 45 | 0 | 0.0 | 7.0 | 0.10 | 0.22 | 0.22 | 92 | 1012.5 |
| 20260509192050 | 45 | 0 | 0.0 | 6.0 | 0.09 | 0.21 | 0.21 | 92 | 1012.6 |
| 20260509191559 | 45 | 0 | 0.0 | 5.0 | 0.09 | 0.20 | 0.20 | 92 | 1012.6 |
| 20260509191053 | 45 | 0 | 0.0 | 2.0 | 0.09 | 0.19 | 0.19 | 92 | 1012.7 |
| 20260509190551 | 45 | 0 | 0.0 | 3.0 | 0.09 | 0.18 | 0.18 | 91 | 1012.7 |
| 20260509190100 | 45 | 0 | 0.0 | 3.0 | 0.10 | 0.18 | 0.18 | 91 | 1012.8 |
| 20260509185550 | 45 | 0 | 0.0 | 10.0 | 0.10 | 0.17 | 0.17 | 91 | 1012.7 |
| 20260509185051 | 45 | 0 | 0.0 | 10.0 | 0.10 | 0.16 | 0.16 | 91 | 1012.8 |
| 20260509184645 | 45 | 0 | 0.0 | 5.0 | 0.11 | 0.16 | 0.16 | 91 | 1012.8 |
| 20260509184052 | 45 | 0 | 0.0 | 4.0 | 0.11 | 0.15 | 0.15 | 91 | 1012.8 |
| 20260509183548 | 45 | 0 | 0.0 | 3.0 | 0.11 | 0.14 | 0.14 | 91 | 1012.8 |
| 20260509183114 | 45 | 0 | 0.0 | 3.0 | 0.10 | 0.13 | 0.13 | 90 | 1012.9 |
| 20260509182548 | 45 | 0 | 0.0 | 3.0 | 0.10 | 0.12 | 0.12 | 90 | 1013.1 |
| 20260509182048 | 46 | 0 | 0.0 | 2.0 | 0.10 | 0.12 | 0.12 | 90 | 1013.0 |
| 20260509181554 | 46 | 0 | 0.0 | 2.0 | 0.09 | 0.11 | 0.11 | 89 | 1013.2 |
| 20260509181050 | 46 | 0 | 0.0 | 2.0 | 0.09 | 0.10 | 0.10 | 89 | 1013.1 |
| 20260509180550 | 46 | 0 | 0.0 | 1.0 | 0.08 | 0.09 | 0.09 | 89 | 1013.0 |
| 20260509180107 | 46 | 0 | 0.0 | 1.0 | 0.07 | 0.08 | 0.08 | 89 | 1013.1 |
| 20260509175548 | 46 | 0 | 0.0 | 3.0 | 0.06 | 0.07 | 0.07 | 88 | 1013.3 |
| 20260509175048 | 46 | 0 | 0.0 | 3.0 | 0.05 | 0.06 | 0.06 | 88 | 1013.3 |
| 20260509174558 | 46 | 0 | 0.0 | 0.0 | 0.04 | 0.05 | 0.05 | 88 | 1013.3 |
| 20260509174048 | 46 | 0 | 0.0 | 0.0 | 0.03 | 0.04 | 0.04 | 87 | 1013.3 |
| 20260509173548 | 46 | 0 | 0.0 | 0.0 | 0.02 | 0.03 | 0.03 | 86 | 1013.3 |
| 20260509173105 | 46 | 0 | 0.0 | 1.0 | 0.02 | 0.03 | 0.03 | 86 | 1013.2 |
| 20260509172550 | 46 | 0 | 0.0 | 4.0 | 0.01 | 0.02 | 0.02 | 85 | 1013.4 |
| 20260509172051 | 46 | 0 | 0.0 | 5.0 | 0.01 | 0.02 | 0.02 | 84 | 1013.2 |
| 20260509171558 | 46 | 0 | 0.0 | 5.0 | 0.01 | 0.02 | 0.02 | 84 | 1013.3 |
| 20260509171053 | 47 | 0 | 0.0 | 4.0 | 0.01 | 0.01 | 0.01 | 83 | 1013.3 |
| 20260509170553 | 47 | 0 | 0.0 | 5.0 | 0.01 | 0.01 | 0.01 | 82 | 1013.2 |
| 20260509170101 | 47 | 0 | 0.0 | 5.0 | 0.01 | 0.01 | 0.01 | 82 | 1013.3 |
| 20260509165547 | 47 | 0 | 0.0 | 6.0 | 0.01 | 0.01 | 0.01 | 81 | 1013.4 |
| 20260509165048 | 48 | 0 | 0.0 | 6.0 | 0.01 | 0.01 | 0.01 | 80 | 1013.4 |
| 20260509164602 | 48 | 0 | 0.0 | 6.0 | 0.01 | 0.01 | 0.01 | 80 | 1013.2 |
| 20260509164048 | 48 | 0 | 0.0 | 4.0 | 0.01 | 0.01 | 0.01 | 79 | 1013.5 |
| 20260509163548 | 49 | 0 | 0.0 | 3.0 | 0.01 | 0.01 | 0.01 | 80 | 1013.5 |
| 20260509163111 | 49 | 0 | 0.0 | 3.0 | 0.01 | 0.01 | 0.01 | 79 | 1013.4 |
| 20260509162552 | 49 | 0 | 0.0 | 1.0 | 0.01 | 0.01 | 0.01 | 78 | 1013.4 |
| 20260509162052 | 49 | 0 | 0.0 | 0.0 | 0.01 | 0.01 | 0.01 | 76 | 1013.6 |
| 20260509161601 | 50 | 0 | 0.0 | 0.0 | 0.01 | 0.01 | 0.01 | 77 | 1013.6 |
| 20260509161048 | 50 | 0 | 0.0 | 0.0 | 0.00 | 0.00 | 0.00 | 76 | 1013.6 |
| 20260509160551 | 50 | 0 | 0.0 | 0.0 | 0.00 | 0.00 | 0.00 | 76 | 1013.8 |
| 20260509160055 | 50 | 0 | 0.0 | 2.0 | 0.00 | 0.00 | 0.00 | 74 | 1013.8 |
| 20260509155550 | 50 | 0 | 0.0 | 2.0 | 0.00 | 0.00 | 0.00 | 72 | 1013.8 |
| 20260509155050 | 50 | 0 | 0.0 | 1.0 | 0.00 | 0.00 | 0.00 | 70 | 1013.7 |
| 20260509154559 | 51 | 0 | 0.0 | 2.0 | 0.00 | 0.00 | 0.00 | 68 | 1013.7 |
| 20260509154053 | 51 | 0 | 0.0 | 2.0 | 0.00 | 0.00 | 0.00 | 67 | 1013.7 |
| 20260509153617 | 51 | 0 | 0.0 | 2.0 | 0.00 | 0.00 | 0.00 | 67 | 1013.7 |
| 20260509153058 | 51 | 0 | 0.0 | 3.0 | 0.00 | 0.00 | 0.00 | 63 | 1013.8 |
| 20260509152549 | 52 | 0 | 0.0 | 3.0 | 0.00 | 0.00 | 0.00 | 62 | 1013.7 |
| 20260509152048 | 52 | 0 | 0.0 | 5.0 | 0.00 | 0.00 | 0.00 | 59 | 1013.7 |
| 20260509151557 | 52 | 0 | 0.0 | 5.0 | 0.00 | 0.00 | 0.00 | 55 | 1013.8 |
| 20260509151048 | 53 | 0 | 0.0 | 4.0 | 0.00 | 0.00 | 0.00 | 53 | 1013.6 |
| 20260509150551 | 53 | 0 | 0.0 | 2.0 | 0.00 | 0.00 | 0.00 | 50 | 1013.7 |
| 20260509150058 | 53 | 0 | 0.0 | 0.0 | 0.00 | 0.00 | 0.00 | 49 | 1013.5 |
| 20260509145548 | 53 | 0 | 0.0 | 0.0 | 0.00 | 0.00 | 0.00 | 48 | 1013.4 |
| 20260509145047 | 53 | 0 | 0.0 | 4.0 | 0.00 | 0.00 | 0.00 | 49 | 1013.3 |
| 20260509144558 | 52 | 0 | 0.0 | 5.0 | 0.00 | 0.00 | 0.00 | 49 | 1013.4 |
| 20260509144048 | 52 | 0 | 0.0 | 5.0 | 0.00 | 0.00 | 0.00 | 48 | 1013.4 |
| 20260509143548 | 53 | 0 | 0.0 | 5.0 | 0.00 | 0.00 | 0.00 | 48 | 1013.6 |
| 20260509143059 | 53 | 0 | 0.0 | 5.0 | 0.00 | 0.00 | 0.00 | 48 | 1013.5 |
| 20260509142550 | 53 | 0 | 0.0 | 2.0 | 0.00 | 0.00 | 0.00 | 48 | 1013.2 |
| 20260509142051 | 53 | 0 | 0.0 | 1.0 | 0.00 | 0.00 | 0.00 | 50 | 1013.3 |
| 20260509141602 | 52 | 0 | 0.0 | 0.0 | 0.00 | 0.00 | 0.00 | 51 | 1013.4 |
| 20260509141055 | 52 | 0 | 0.0 | 0.0 | 0.00 | 0.00 | 0.00 | 51 | 1013.4 |
| 20260509140550 | 52 | 0 | 0.0 | 4.0 | 0.00 | 0.00 | 0.00 | 52 | 1013.4 |
| 20260509140100 | 52 | 0 | 0.0 | 4.0 | 0.00 | 0.00 | 0.00 | 52 | 1013.5 |
| 20260509135548 | 52 | 0 | 0.0 | 4.0 | 0.00 | 0.00 | 0.00 | 52 | 1013.4 |
| 20260509135051 | 52 | 0 | 0.0 | 0.0 | 0.00 | 0.00 | 0.00 | 52 | 1013.3 |
| 20260509134551 | 51 | 0 | 0.0 | 0.0 | 0.00 | 0.00 | 0.00 | 53 | 1013.5 |
| 20260509134052 | 51 | 0 | 0.0 | 3.0 | 0.00 | 0.00 | 0.00 | 54 | 1013.2 |
| 20260509133550 | 50 | 0 | 0.0 | 3.0 | 0.00 | 0.00 | 0.00 | 57 | 1013.4 |
| 20260509133055 | 49 | 0 | 0.0 | 0.0 | 0.00 | 0.00 | 0.00 | 58 | 1013.2 |
| 20260509132549 | 48 | 0 | 0.0 | 0.0 | 0.00 | 0.00 | 0.00 | 59 | 1013.3 |
| 20260509132047 | 47 | 0 | 0.0 | 0.0 | 0.00 | 0.00 | 0.00 | 61 | 1013.4 |
| 20260509131600 | 47 | 0 | 0.0 | 0.0 | 0.00 | 0.00 | 0.00 | 62 | 1013.4 |
| 20260509131049 | 46 | 0 | 0.0 | 0.0 | 0.00 | 0.00 | 0.00 | 63 | 1013.4 |
| 20260509130553 | 46 | 0 | 0.0 | 0.0 | 0.00 | 0.00 | 0.00 | 63 | 1013.6 |
| 20260509130101 | 45 | 0 | 0.0 | 0.0 | 0.00 | 0.00 | 0.00 | 64 | 1013.7 |
| 20260509125548 | 45 | 0 | 0.0 | 0.0 | 0.00 | 0.00 | 0.00 | 65 | 1013.7 |
| 20260509125050 | 44 | 0 | 0.0 | 0.0 | 0.00 | 0.00 | 0.00 | 65 | 1013.8 |
| 20260509124558 | 44 | 0 | 0.0 | 0.0 | 0.00 | 0.00 | 0.00 | 67 | 1013.8 |
| 20260509124048 | 44 | 0 | 0.0 | 0.0 | 0.00 | 0.00 | 0.00 | 68 | 1013.9 |
| 20260509123550 | 43 | 0 | 0.0 | 0.0 | 0.00 | 0.00 | 0.00 | 68 | 1014.0 |
| 20260509123059 | 42 | 0 | 0.0 | 0.0 | 0.00 | 0.00 | 0.00 | 70 | 1014.1 |
| 20260509122548 | 41 | 0 | 0.0 | 0.0 | 0.00 | 0.00 | 0.00 | 71 | 1014.1 |
| 20260509122052 | 40 | 0 | 0.0 | 0.0 | 0.00 | 0.00 | 0.00 | 72 | 1014.1 |
| 20260509121552 | 39 | 0 | 0.0 | 0.0 | 0.00 | 0.00 | 0.00 | 74 | 1014.3 |
| 20260509121054 | 39 | 0 | 0.0 | 0.0 | 0.00 | 0.00 | 0.00 | 76 | 1014.3 |
| 20260509120551 | 38 | 0 | 0.0 | 0.0 | 0.00 | 0.00 | 0.00 | 78 | 1014.3 |
| 20260509120055 | 38 | 0 | 0.0 | 0.0 | 0.00 | 0.00 | 0.00 | 78 | 1014.5 |
| 20260509115551 | 37 | 0 | 0.0 | 0.0 | 0.00 | 0.00 | 0.00 | 79 | 1014.4 |
| 20260509115051 | 36 | 0 | 0.0 | 0.0 | 0.00 | 0.00 | 0.00 | 80 | 1014.4 |
| 20260509114552 | 36 | 0 | 0.0 | 0.0 | 0.00 | 0.00 | 0.00 | 83 | 1014.5 |
| 20260509114051 | 35 | 0 | 0.0 | 0.0 | 0.00 | 0.00 | 0.00 | 85 | 1014.5 |
| 20260509113553 | 35 | 0 | 0.0 | 0.0 | 0.00 | 0.00 | 0.00 | 87 | 1014.4 |
| 20260509113116 | 34 | 0 | 0.0 | 0.0 | 0.00 | 0.00 | 0.00 | 88 | 1014.6 |
| 20260509112552 | 34 | 0 | 0.0 | 0.0 | 0.00 | 0.00 | 0.00 | 91 | 1014.4 |
| 20260509112052 | 33 | 0 | 0.0 | 0.0 | 0.00 | 0.00 | 0.00 | 93 | 1014.4 |
| 20260509111602 | 32 | 0 | 0.0 | 0.0 | 0.00 | 0.00 | 0.00 | 93 | 1014.5 |
| 20260509111052 | 31 | 0 | 0.0 | 0.0 | 0.00 | 0.00 | 0.00 | 93 | 1014.4 |
| 20260509110552 | 31 | 0 | 0.0 | 0.0 | 0.00 | 0.00 | 0.00 | 93 | 1014.5 |
| 20260509110057 | 30 | 0 | 0.0 | 0.0 | 0.00 | 0.00 | 0.00 | 93 | 1014.5 |
| 20260509105552 | 30 | 0 | 0.0 | 0.0 | 0.00 | 0.00 | 0.00 | 93 | 1014.4 |
| 20260509105052 | 29 | 0 | 0.0 | 0.0 | 0.00 | 0.00 | 0.00 | 93 | 1014.5 |
| 20260509104558 | 29 | 0 | 0.0 | 0.0 | 0.00 | 0.00 | 0.00 | 93 | 1014.4 |
| 20260509104056 | 29 | 0 | 0.0 | 0.0 | 0.00 | 0.00 | 0.00 | 92 | 1014.2 |
| 20260509103552 | 29 | 0 | 0.0 | 0.0 | 0.00 | 0.00 | 0.00 | 92 | 1014.2 |
| 20260509103059 | 29 | 0 | 0.0 | 0.0 | 0.00 | 0.00 | 0.00 | 92 | 1014.2 |
| 20260509102552 | 29 | 0 | 0.0 | 0.0 | 0.00 | 0.00 | 0.00 | 92 | 1014.0 |
| 20260509102053 | 29 | 0 | 0.0 | 0.0 | 0.00 | 0.00 | 0.00 | 92 | 1014.0 |
| 20260509101556 | 29 | 0 | 0.0 | 0.0 | 0.00 | 0.00 | 0.00 | 92 | 1014.0 |
| 20260509101052 | 29 | 0 | 0.0 | 0.0 | 0.00 | 0.00 | 0.00 | 92 | 1014.0 |
| 20260509100552 | 29 | 0 | 0.0 | 0.0 | 0.00 | 0.00 | 0.00 | 92 | 1013.9 |
| 20260509100109 | 29 | 0 | 0.0 | 0.0 | 0.00 | 0.00 | 0.00 | 92 | 1014.0 |
| 20260509095552 | 29 | 0 | 0.0 | 0.0 | 0.00 | 0.00 | 0.00 | 92 | 1013.9 |
| 20260509095052 | 29 | 0 | 0.0 | 0.0 | 0.00 | 0.00 | 0.00 | 92 | 1013.8 |
| 20260509094603 | 29 | 0 | 0.0 | 0.0 | 0.00 | 0.00 | 0.00 | 92 | 1013.6 |
| 20260509094052 | 29 | 0 | 0.0 | 0.0 | 0.00 | 0.00 | 0.00 | 91 | 1013.4 |
| 20260509093552 | 29 | 0 | 0.0 | 0.0 | 0.00 | 0.00 | 0.00 | 91 | 1013.2 |
| 20260509093107 | 29 | 0 | 0.0 | 0.0 | 0.00 | 0.00 | 0.00 | 91 | 1013.3 |
| 20260509092556 | 29 | 0 | 0.0 | 0.0 | 0.00 | 0.00 | 0.00 | 91 | 1013.2 |
| 20260509092051 | 29 | 0 | 0.0 | 0.0 | 0.00 | 0.00 | 0.00 | 91 | 1013.2 |
| 20260509091606 | 29 | 0 | 0.0 | 0.0 | 0.00 | 0.00 | 0.00 | 91 | 1013.2 |
| 20260509091051 | 29 | 0 | 0.0 | 0.0 | 0.00 | 0.00 | 0.00 | 91 | 1013.3 |
| 20260509090553 | 29 | 0 | 0.0 | 0.0 | 0.00 | 0.00 | 0.00 | 91 | 1013.2 |
| 20260509090057 | 29 | 0 | 0.0 | 0.0 | 0.00 | 0.00 | 0.00 | 91 | 1013.1 |
| 20260509085556 | 29 | 0 | 0.0 | 0.0 | 0.00 | 0.00 | 0.00 | 90 | 1013.0 |
| 20260509085055 | 29 | 0 | 0.0 | 0.0 | 0.00 | 0.00 | 0.00 | 90 | 1013.0 |
| 20260509084554 | 29 | 0 | 0.0 | 0.0 | 0.00 | 0.00 | 0.00 | 90 | 1013.0 |
| 20260509084052 | 29 | 0 | 0.0 | 0.0 | 0.00 | 0.00 | 0.00 | 90 | 1013.0 |
| 20260509083553 | 29 | 0 | 0.0 | 0.0 | 0.00 | 0.00 | 0.00 | 90 | 1012.9 |
| 20260509083052 | 30 | 0 | 0.0 | 0.0 | 0.00 | 0.00 | 0.00 | 90 | 1013.0 |
| 20260509082552 | 30 | 0 | 0.0 | 0.0 | 0.00 | 0.00 | 0.00 | 90 | 1013.2 |
| 20260509082052 | 30 | 0 | 0.0 | 0.0 | 0.00 | 0.00 | 0.00 | 89 | 1013.0 |
| 20260509081559 | 30 | 0 | 0.0 | 0.0 | 0.00 | 0.00 | 0.00 | 89 | 1013.0 |
| 20260509081052 | 30 | 0 | 0.0 | 0.0 | 0.00 | 0.00 | 0.00 | 89 | 1012.9 |
| 20260509080550 | 30 | 0 | 0.0 | 0.0 | 0.00 | 0.00 | 0.00 | 89 | 1013.0 |
| 20260509080058 | 30 | 0 | 0.0 | 0.0 | 0.00 | 0.00 | 0.00 | 89 | 1013.1 |
| 20260509075551 | 30 | 0 | 0.0 | 0.0 | 0.00 | 0.00 | 0.00 | 88 | 1013.1 |
| 20260509075051 | 30 | 0 | 0.0 | 0.0 | 0.00 | 0.00 | 0.00 | 89 | 1013.2 |
| 20260509074550 | 31 | 0 | 0.0 | 0.0 | 0.00 | 0.00 | 0.00 | 88 | 1013.1 |
| 20260509074048 | 31 | 0 | 0.0 | 0.0 | 0.00 | 0.00 | 0.00 | 88 | 1013.1 |
| 20260509073555 | 31 | 0 | 0.0 | 0.0 | 0.00 | 0.00 | 0.00 | 87 | 1013.0 |
| 20260509073104 | 31 | 0 | 0.0 | 0.0 | 0.00 | 0.00 | 0.00 | 87 | 1013.0 |
| 20260509072552 | 31 | 0 | 0.0 | 0.0 | 0.00 | 0.00 | 0.00 | 87 | 1013.1 |
| 20260509072052 | 31 | 0 | 0.0 | 0.0 | 0.00 | 0.00 | 0.00 | 87 | 1013.0 |
| 20260509071553 | 32 | 0 | 0.0 | 0.0 | 0.00 | 0.00 | 0.00 | 86 | 1013.2 |
| 20260509071051 | 32 | 0 | 0.0 | 0.0 | 0.00 | 0.00 | 0.00 | 86 | 1013.0 |
| 20260509070551 | 32 | 0 | 0.0 | 0.0 | 0.00 | 0.00 | 0.00 | 86 | 1013.0 |
| 20260509070057 | 32 | 0 | 0.0 | 0.0 | 0.00 | 0.00 | 0.00 | 85 | 1013.1 |
| 20260509065550 | 32 | 0 | 0.0 | 0.0 | 0.00 | 0.00 | 0.00 | 85 | 1013.1 |
| 20260509065050 | 32 | 0 | 0.0 | 0.0 | 0.00 | 0.00 | 0.00 | 85 | 1013.0 |
| 20260509064552 | 32 | 0 | 0.0 | 0.0 | 0.00 | 0.00 | 0.00 | 84 | 1012.9 |
| 20260509064050 | 32 | 0 | 0.0 | 0.0 | 0.00 | 0.00 | 0.00 | 85 | 1013.0 |
| 20260509063550 | 33 | 0 | 0.0 | 0.0 | 0.00 | 0.00 | 0.00 | 85 | 1013.2 |
| 20260509063101 | 33 | 0 | 0.0 | 0.0 | 0.00 | 0.00 | 0.00 | 84 | 1013.0 |
| 20260509062550 | 33 | 0 | 0.0 | 0.0 | 0.00 | 0.00 | 0.00 | 84 | 1013.1 |
| 20260509062050 | 33 | 0 | 0.0 | 0.0 | 0.00 | 0.00 | 0.00 | 83 | 1013.1 |
| 20260509061606 | 33 | 0 | 0.0 | 0.0 | 0.00 | 0.00 | 0.00 | 83 | 1013.0 |
| 20260509061052 | 33 | 0 | 0.0 | 0.0 | 0.00 | 0.00 | 0.00 | 83 | 1013.1 |
| 20260509060553 | 33 | 0 | 0.0 | 0.0 | 0.00 | 0.00 | 0.00 | 82 | 1013.0 |
| 20260509060053 | 34 | 0 | 0.0 | 0.0 | 0.00 | 0.00 | 0.00 | 81 | 1013.0 |
| 20260509055555 | 34 | 0 | 0.0 | 0.0 | 0.00 | 0.00 | 0.00 | 81 | 1012.9 |
| 20260509055051 | 34 | 0 | 0.0 | 0.0 | 0.00 | 0.00 | 0.00 | 80 | 1012.8 |
| 20260509054559 | 34 | 0 | 0.0 | 0.0 | 0.00 | 0.00 | 0.00 | 80 | 1013.0 |
| 20260509054051 | 34 | 0 | 0.0 | 0.0 | 0.00 | 0.00 | 0.00 | 79 | 1012.9 |
| 20260509053552 | 35 | 0 | 0.0 | 0.0 | 0.00 | 0.00 | 0.00 | 78 | 1012.8 |
| 20260509053100 | 35 | 0 | 0.0 | 0.0 | 0.00 | 0.00 | 0.00 | 78 | 1012.9 |
| 20260509052551 | 35 | 0 | 0.0 | 0.0 | 0.00 | 0.00 | 0.00 | 78 | 1012.8 |
| 20260509052055 | 35 | 0 | 0.0 | 0.0 | 0.00 | 0.00 | 0.00 | 78 | 1012.7 |
| 20260509051554 | 35 | 0 | 0.0 | 0.0 | 0.00 | 0.00 | 0.00 | 77 | 1012.7 |
| 20260509051051 | 36 | 0 | 0.0 | 0.0 | 0.00 | 0.00 | 0.00 | 77 | 1012.6 |
| 20260509050548 | 36 | 0 | 0.0 | 0.0 | 0.00 | 0.00 | 0.00 | 77 | 1012.6 |
| 20260509050056 | 36 | 0 | 0.0 | 0.0 | 0.00 | 0.00 | 0.00 | 77 | 1012.7 |
| 20260509045552 | 36 | 0 | 0.0 | 0.0 | 0.00 | 0.00 | 0.00 | 76 | 1012.6 |
| 20260509045052 | 36 | 0 | 0.0 | 0.0 | 0.00 | 0.00 | 0.00 | 75 | 1012.6 |
| 20260509044556 | 37 | 0 | 0.0 | 0.0 | 0.00 | 0.00 | 0.00 | 76 | 1012.6 |
| 20260509044052 | 37 | 0 | 0.0 | 0.0 | 0.00 | 0.00 | 0.00 | 74 | 1012.6 |
| 20260509043554 | 37 | 0 | 0.0 | 0.0 | 0.00 | 0.00 | 0.00 | 74 | 1012.6 |
| 20260509043054 | 37 | 0 | 0.0 | 0.0 | 0.00 | 0.00 | 0.00 | 74 | 1012.5 |
| 20260509042551 | 38 | 0 | 0.0 | 0.0 | 0.00 | 0.00 | 0.00 | 73 | 1012.4 |
| 20260509042051 | 38 | 0 | 0.0 | 0.0 | 0.00 | 0.00 | 0.00 | 73 | 1012.4 |
| 20260509041550 | 39 | 0 | 0.0 | 0.0 | 0.00 | 0.00 | 0.00 | 73 | 1012.4 |
| 20260509041051 | 39 | 0 | 0.0 | 0.0 | 0.00 | 0.00 | 0.00 | 71 | 1012.6 |
| 20260509040551 | 39 | 0 | 0.0 | 0.0 | 0.00 | 0.00 | 0.00 | 68 | 1012.5 |
| 20260509040055 | 40 | 0 | 0.0 | 0.0 | 0.00 | 0.00 | 0.00 | 68 | 1012.5 |
| 20260509035551 | 40 | 0 | 0.0 | 0.0 | 0.00 | 0.00 | 0.00 | 68 | 1012.5 |
| 20260509035050 | 40 | 0 | 0.0 | 0.0 | 0.00 | 0.00 | 0.00 | 67 | 1012.3 |
| 20260509034600 | 40 | 0 | 0.0 | 0.0 | 0.00 | 0.00 | 0.00 | 68 | 1012.2 |
| 20260509034053 | 40 | 0 | 0.0 | 0.0 | 0.00 | 0.00 | 0.00 | 68 | 1012.1 |
| 20260509033552 | 40 | 0 | 0.0 | 0.0 | 0.00 | 0.00 | 0.00 | 69 | 1012.0 |
| 20260509033055 | 40 | 0 | 0.0 | 0.0 | 0.00 | 0.00 | 0.00 | 68 | 1011.9 |
| 20260509032551 | 40 | 0 | 0.0 | 0.0 | 0.00 | 0.00 | 0.00 | 68 | 1011.9 |
| 20260509032051 | 41 | 0 | 0.0 | 4.0 | 0.00 | 0.00 | 0.00 | 69 | 1011.9 |
| 20260509031554 | 41 | 0 | 0.0 | 4.0 | 0.00 | 0.00 | 0.00 | 68 | 1011.8 |
| 20260509031052 | 41 | 0 | 0.0 | 0.0 | 0.00 | 0.00 | 0.00 | 66 | 1011.8 |
| 20260509030552 | 42 | 0 | 0.0 | 0.0 | 0.00 | 0.00 | 0.00 | 66 | 1011.8 |
| 20260509030054 | 42 | 0 | 0.0 | 0.0 | 0.00 | 0.00 | 0.00 | 65 | 1011.7 |
| 20260509025552 | 42 | 0 | 0.0 | 0.0 | 0.00 | 0.00 | 0.00 | 63 | 1011.8 |
| 20260509025055 | 42 | 0 | 0.0 | 0.0 | 0.00 | 0.00 | 0.00 | 63 | 1011.6 |
| 20260509024553 | 43 | 0 | 0.0 | 0.0 | 0.00 | 0.00 | 0.00 | 63 | 1011.7 |
| 20260509024052 | 43 | 0 | 0.0 | 0.0 | 0.00 | 0.00 | 0.00 | 63 | 1011.7 |
| 20260509023551 | 44 | 0 | 0.0 | 0.0 | 0.00 | 0.00 | 0.00 | 61 | 1011.7 |
| 20260509023049 | 44 | 0 | 0.0 | 0.0 | 0.00 | 0.00 | 0.00 | 60 | 1011.5 |
| 20260509022552 | 44 | 0 | 0.0 | 0.0 | 0.00 | 0.00 | 0.00 | 60 | 1011.4 |
| 20260509022052 | 44 | 0 | 0.0 | 0.0 | 0.00 | 0.00 | 0.00 | 61 | 1011.5 |
| 20260509021552 | 44 | 0 | 0.0 | 0.0 | 0.00 | 0.00 | 0.00 | 61 | 1011.3 |
| 20260509021051 | 44 | 0 | 0.0 | 0.0 | 0.00 | 0.00 | 0.00 | 58 | 1011.4 |
| 20260509020551 | 44 | 0 | 0.0 | 0.0 | 0.00 | 0.00 | 0.00 | 58 | 1011.2 |
| 20260509020050 | 44 | 0 | 0.0 | 0.0 | 0.00 | 0.00 | 0.00 | 57 | 1011.2 |
| 20260509015552 | 44 | 0 | 0.0 | 0.0 | 0.00 | 0.00 | 0.00 | 59 | 1011.3 |
| 20260509015052 | 44 | 0 | 0.0 | 0.0 | 0.00 | 0.00 | 0.00 | 59 | 1011.1 |
| 20260509014552 | 44 | 0 | 0.0 | 0.0 | 0.00 | 0.00 | 0.00 | 56 | 1011.1 |
| 20260509014051 | 44 | 0 | 0.0 | 0.0 | 0.00 | 0.00 | 0.00 | 54 | 1011.1 |
| 20260509013551 | 44 | 0 | 0.0 | 0.0 | 0.00 | 0.00 | 0.00 | 58 | 1011.0 |
| 20260509013057 | 44 | 0 | 0.0 | 0.0 | 0.00 | 0.00 | 0.00 | 60 | 1010.8 |
| 20260509012554 | 44 | 0 | 0.0 | 0.0 | 0.00 | 0.00 | 0.00 | 58 | 1010.8 |
| 20260509012050 | 44 | 0 | 0.0 | 0.0 | 0.00 | 0.00 | 0.00 | 58 | 1010.8 |
| 20260509011555 | 44 | 0 | 0.0 | 0.0 | 0.00 | 0.00 | 0.00 | 55 | 1010.7 |
| 20260509011047 | 44 | 0 | 0.0 | 0.0 | 0.00 | 0.00 | 0.00 | 58 | 1010.6 |
| 20260509010548 | 44 | 0 | 0.0 | 0.0 | 0.00 | 0.00 | 0.00 | 54 | 1010.4 |
| 20260509010100 | 44 | 0 | 0.0 | 0.0 | 0.00 | 0.00 | 0.00 | 54 | 1010.3 |
| 20260509005552 | 45 | 0 | 0.0 | 0.0 | 0.00 | 0.00 | 0.00 | 53 | 1010.3 |
| 20260509005051 | 45 | 0 | 0.0 | 0.0 | 0.00 | 0.00 | 0.00 | 56 | 1010.3 |
| 20260509004553 | 45 | 0 | 0.0 | 0.0 | 0.00 | 0.00 | 0.00 | 54 | 1010.1 |
| 20260509004053 | 45 | 0 | 0.0 | 0.0 | 0.00 | 0.00 | 0.00 | 54 | 1010.1 |